Stoneville, NC

8:10 PM EST on February 10, 2016 (GMT -0500)
Reidsville

Weather History for KSIF - January, 2014

Change the Weather History Date:

Monday, January 6, 2014

  Actual Average (KGSO) Record (KGSO)
Temperature  
Mean Temperature 26 °F 39 °F  
Max Temperature 42 °F 48 °F 71 °F (1907)
Min Temperature 10 °F 29 °F 5 °F (1924)
Degree Days  
Heating Degree Days 39 26  
Month to date heating degree days 156  
Since 1 July heating degree days 1570  
Cooling Degree Days 0 0  
Month to date cooling degree days 0  
Year to date cooling degree days 0  
Moisture  
Dew Point 22 °F    
Average Humidity 66    
Maximum Humidity 100    
Minimum Humidity 37    
Precipitation  
Precipitation 0.09 in 0.10 in 2.44 in (1962)
Month to date precipitation 0.58  
Year to date precipitation 0.58  
Snow  
Snow 0.00 in 0.10 in 6.00 in (1996)
Month to date snowfall 0.5  
Since 1 July snowfall 1.4  
Snow Depth -    
Sea Level Pressure  
Sea Level Pressure 29.86 in    
Wind  
Wind Speed 7 mph (West)    
Max Wind Speed 16 mph    
Max Gust Speed 31 mph    
Visibility 9 miles    
Events Rain    
T = Trace of Precipitation, MM = Missing Value Source: NWS Daily Summary

Daily Weather History Graph

Daily Weather History Graph

Search for Another Location

Airport or City:

Trip Planner

Search our weather history database for the weather conditions in past years. The results will help you decide how hot, cold, wet, or windy it might be!

Date:

Astronomy

Jan. 06, 2014 Rise Set
Actual Time 7:31 AM EST 5:19 PM EST
Civil Twilight 7:03 AM EST 5:47 PM EST
Nautical Twilight 6:31 AM EST 6:19 PM EST
Astronomical Twilight 5:59 AM EST 6:50 PM EST
Moon 10:56 AM EST (1/6) 11:39 PM EST (1/6)
Length of Visible Light 10h 44m
Length of Day
9h 47m
Waxing Crescent, 34% of the Moon is Illuminated
Jan 6
Waxing Crescent
Jan 7
First Quarter
Jan 15
Full
Jan 24
Last Quarter
Jan 30
New

Hourly Weather History & Observations

Time (EST) Temp. Windchill Dew Point Humidity Pressure Visibility Wind Dir Wind Speed Gust Speed Precip Events Conditions
12:15 AM 40.1 °F 35.3 °F 40.1 °F 100% 29.74 in 1.2 mi SSW 6.9 mph - N/A Rain Light Rain
12:35 AM 40.5 °F 35.8 °F 40.5 °F 100% 29.75 in 4.0 mi SW 6.9 mph - N/A   Light Drizzle
12:55 AM 40.6 °F 36.7 °F 40.6 °F 100% 29.72 in 5.0 mi SSW 5.8 mph - N/A Rain Light Rain
1:15 AM 41.0 °F 38.0 °F 41.0 °F 100% 29.70 in 5.0 mi SSW 4.6 mph - N/A Rain Light Rain
1:35 AM 41.0 °F 38.0 °F 41.0 °F 100% 29.69 in 2.5 mi SSW 4.6 mph - 0.01 in Rain Rain
1:55 AM 41.0 °F 39.0 °F 41.0 °F 100% 29.68 in 2.5 mi SW 3.5 mph - 0.05 in Rain Rain
2:15 AM 41.0 °F 38.0 °F 41.0 °F 100% 29.67 in 5.0 mi SSW 4.6 mph - N/A   Drizzle
2:35 AM 40.6 °F 38.6 °F 40.6 °F 100% 29.67 in 4.0 mi SSW 3.5 mph - N/A   Light Drizzle
2:55 AM 40.6 °F 37.5 °F 40.6 °F 100% 29.66 in 1.8 mi SW 4.6 mph - N/A Rain Rain
3:15 AM 40.5 °F 36.5 °F 40.5 °F 100% 29.66 in 2.5 mi SSW 5.8 mph - N/A   Heavy Drizzle
3:35 AM 40.5 °F 37.3 °F 40.5 °F 100% 29.65 in 3.0 mi SW 4.6 mph - N/A Rain Light Rain
3:55 AM 40.5 °F 36.5 °F 40.5 °F 100% 29.66 in 3.0 mi West 5.8 mph - N/A   Overcast
4:15 AM 41.2 °F 36.0 °F 41.2 °F 100% 29.66 in 2.5 mi WSW 8.1 mph - 0.01 in Rain Rain
4:35 AM 41.2 °F 38.2 °F 41.2 °F 100% 29.66 in 10.0 mi SW 4.6 mph - 0.01 in Rain Rain
4:55 AM 41.2 °F 37.3 °F 41.2 °F 100% 29.66 in 4.0 mi SW 5.8 mph - 0.03 in Rain Rain
5:15 AM 41.4 °F 37.6 °F 41.4 °F 100% 29.66 in 7.0 mi SW 5.8 mph - N/A Rain Light Rain
5:35 AM 41.5 °F 38.6 °F 41.5 °F 100% 29.67 in 10.0 mi WSW 4.6 mph - N/A   Overcast
5:55 AM 41.5 °F 37.8 °F 41.5 °F 100% 29.66 in 10.0 mi WSW 5.8 mph - N/A   Overcast
6:15 AM 41.5 °F 38.6 °F 41.5 °F 100% 29.66 in 10.0 mi WSW 4.6 mph - N/A   Overcast
6:35 AM 41.5 °F 38.6 °F 41.5 °F 100% 29.68 in 10.0 mi WSW 4.6 mph - N/A   Overcast
6:55 AM 41.4 °F 39.4 °F 41.4 °F 100% 29.68 in 10.0 mi WSW 3.5 mph - 0.01 in Rain Rain
7:15 AM 41.2 °F 39.2 °F 41.2 °F 100% 29.69 in 10.0 mi West 3.5 mph - N/A Rain Light Rain
7:35 AM 41.2 °F 39.2 °F 41.2 °F 100% 29.69 in 10.0 mi West 3.5 mph - N/A Rain Light Rain
7:55 AM 41.0 °F 38.0 °F 40.8 °F 99% 29.70 in 10.0 mi West 4.6 mph - N/A   Overcast
8:20 AM 41.0 °F 39.0 °F 40.6 °F 99% 29.73 in 10.0 mi West 3.5 mph - N/A   Overcast
8:35 AM 40.3 °F 34.4 °F 38.3 °F 93% 29.72 in 10.0 mi WNW 9.2 mph 18.4 mph N/A   Overcast
8:55 AM 42.1 °F 37.1 °F 36.3 °F 80% 29.75 in 10.0 mi West 8.1 mph - N/A   Overcast
9:15 AM 41.9 °F 36.9 °F 34.0 °F 73% 29.76 in 10.0 mi WNW 8.1 mph - N/A   Overcast
9:35 AM 41.9 °F 36.9 °F 33.1 °F 71% 29.78 in 10.0 mi West 8.1 mph - N/A   Overcast
9:55 AM 41.7 °F 36.7 °F 33.3 °F 72% 29.78 in 10.0 mi West 8.1 mph - N/A   Scattered Clouds
10:15 AM 41.5 °F 37.1 °F 30.6 °F 65% 29.79 in 10.0 mi WNW 6.9 mph - N/A   Scattered Clouds
10:35 AM 41.0 °F 35.8 °F 28.9 °F 62% 29.80 in 10.0 mi NW 8.1 mph 17.3 mph N/A   Mostly Cloudy
10:55 AM 40.5 °F 34.1 °F 26.6 °F 58% 29.80 in 10.0 mi NW 10.4 mph 18.4 mph N/A   Overcast
11:15 AM 41.0 °F 34.3 °F 26.4 °F 56% 29.81 in 10.0 mi WNW 11.5 mph 19.6 mph N/A   Scattered Clouds
11:35 AM 40.1 °F 34.7 °F 24.8 °F 54% 29.81 in 10.0 mi WNW 8.1 mph 17.3 mph N/A   Clear
11:55 AM 38.8 °F 31.6 °F 24.1 °F 55% 29.81 in 10.0 mi West 11.5 mph 20.7 mph N/A   Clear
12:15 PM 38.8 °F 32.6 °F 23.4 °F 54% 29.80 in 10.0 mi West 9.2 mph 18.4 mph N/A   Clear
12:35 PM 38.5 °F 31.6 °F 22.1 °F 52% 29.80 in 10.0 mi WNW 10.4 mph 17.3 mph N/A   Clear
12:55 PM 39.2 °F 33.0 °F 18.7 °F 44% 29.79 in 10.0 mi NW 9.2 mph 19.6 mph N/A   Clear
1:15 PM 38.8 °F 32.1 °F 18.5 °F 44% 29.79 in 10.0 mi WNW 10.4 mph 20.7 mph N/A   Clear
1:35 PM 39.0 °F 31.4 °F 18.1 °F 43% 29.81 in 10.0 mi WNW 12.7 mph 17.3 mph N/A   Clear
1:55 PM 38.5 °F 30.3 °F 19.4 °F 46% 29.82 in 10.0 mi West 13.8 mph 20.7 mph N/A   Scattered Clouds
2:15 PM 37.9 °F 30.0 °F 18.5 °F 46% 29.83 in 10.0 mi West 12.7 mph 19.6 mph N/A   Scattered Clouds
2:35 PM 36.3 °F 27.5 °F 17.4 °F 46% 29.84 in 10.0 mi West 13.8 mph 21.9 mph N/A   Clear
2:55 PM 35.1 °F 25.2 °F 16.2 °F 46% 29.86 in 10.0 mi West 16.1 mph 26.5 mph N/A   Clear
3:15 PM 34.0 °F 25.0 °F 15.4 °F 47% 29.87 in 10.0 mi West 12.7 mph 19.6 mph N/A   Clear
3:35 PM 33.3 °F 27.1 °F 14.4 °F 46% 29.88 in 10.0 mi WNW 6.9 mph 19.6 mph N/A   Scattered Clouds
3:55 PM 33.8 °F 26.4 °F 13.6 °F 44% 29.88 in 10.0 mi WNW 9.2 mph 20.7 mph N/A   Scattered Clouds
4:15 PM 34.2 °F 24.8 °F 12.9 °F 42% 29.90 in 10.0 mi West 13.8 mph 27.6 mph N/A   Scattered Clouds
4:35 PM 32.2 °F 22.7 °F 10.0 °F 40% 29.91 in 10.0 mi WNW 12.7 mph 19.6 mph N/A   Scattered Clouds
4:55 PM 30.7 °F 21.4 °F 8.8 °F 40% 29.93 in 10.0 mi WNW 11.5 mph 20.7 mph N/A   Clear
5:15 PM 29.1 °F 18.4 °F 6.6 °F 39% 29.94 in 10.0 mi WNW 13.8 mph 25.3 mph N/A   Clear
5:35 PM 28.2 °F 17.7 °F 5.7 °F 39% 29.95 in 10.0 mi West 12.7 mph 27.6 mph N/A   Clear
5:55 PM 27.1 °F 16.4 °F 4.6 °F 38% 29.97 in 10.0 mi West 12.7 mph 25.3 mph N/A   Clear
6:15 PM 25.7 °F 13.1 °F 2.7 °F 37% 29.99 in 10.0 mi West 16.1 mph 31.1 mph N/A   Clear
6:35 PM 24.4 °F 12.4 °F 1.2 °F 37% 30.01 in 10.0 mi West 13.8 mph 23.0 mph N/A   Clear
6:55 PM 23.2 °F 12.6 °F 2.7 °F 41% 30.03 in 10.0 mi NW 10.4 mph 19.6 mph N/A   Clear
7:15 PM 21.2 °F 9.5 °F 0.5 °F 41% 30.06 in 10.0 mi WNW 11.5 mph 19.6 mph N/A   Clear
7:35 PM 19.6 °F 6.2 °F -3.3 °F 37% 30.08 in 10.0 mi WNW 13.8 mph 21.9 mph N/A   Clear
7:55 PM 18.7 °F 8.6 °F -4.0 °F 37% 30.09 in 10.0 mi WNW 8.1 mph 21.9 mph N/A   Clear
8:15 PM 17.8 °F 6.6 °F -4.0 °F 38% 30.11 in 10.0 mi West 9.2 mph 19.6 mph N/A   Clear
8:35 PM 16.7 °F 3.8 °F -4.2 °F 40% 30.13 in 10.0 mi WNW 11.5 mph 17.3 mph N/A   Clear
8:55 PM 15.8 °F 2.7 °F -5.1 °F 39% 30.14 in 10.0 mi West 11.5 mph 17.3 mph N/A   Clear
9:15 PM 14.9 °F 2.3 °F -6.9 °F 38% 30.16 in 10.0 mi West 10.4 mph 19.6 mph N/A   Clear
9:35 PM 14.0 °F 3.9 °F -6.0 °F 41% 30.17 in 10.0 mi West 6.9 mph 21.9 mph N/A   Clear
9:55 PM 13.5 °F 2.2 °F -6.0 °F 42% 30.18 in 10.0 mi West 8.1 mph 21.9 mph N/A   Clear
10:15 PM 12.6 °F -0.6 °F -6.9 °F 42% 30.19 in 10.0 mi West 10.4 mph 19.6 mph N/A   Clear
10:35 PM 12.0 °F 2.7 °F -6.7 °F 43% 30.19 in 10.0 mi West 5.8 mph - N/A   Clear
10:55 PM 11.5 °F 3.5 °F -7.8 °F 42% 30.20 in 10.0 mi West 4.6 mph - N/A   Clear
11:15 PM 10.9 °F -2.6 °F -7.6 °F 43% 30.20 in 10.0 mi West 10.4 mph 17.3 mph N/A   Clear
11:35 PM 10.8 °F 1.2 °F -7.8 °F 43% 30.20 in 10.0 mi West 5.8 mph - N/A   Clear
11:55 PM 10.4 °F -0.4 °F -7.2 °F 45% 30.21 in 10.0 mi West 6.9 mph 19.6 mph N/A   Clear